RH
12 19 30 39 43 49 56 60 62 63 58 51 43 36 30 25 24 32 52 73 72 52 41 41 40 38 38 37 35 33 32 33 32 33 34 36 38 41 46 51 54 59 66 71 71 66 61 56 50 47 48 49 44 36 35 38 41 46 52 59 64 70 77 78 82 96 98 85 82 82 61 30 16 12 9 6 6 6 7 8 8 9 10 12 12
16 23 31 35 38 48 53 53 58 62 60 54 45 36 28 25 28 34 47 67 72 53 39 41 42 41 42 41 39 38 37 37 37 38 38 38 40 45 52 57 59 63 67 74 74 67 63 58 46 43 46 40 32 31 34 35 43 59 69 72 75 80 85 87 93 100 95 88 87 70 40 19 13 10 7 6 5 6 7 8 8 10 11 12 12
18 23 28 29 34 44 48 48 54 59 58 53 42 32 25 21 30 47 59 70 71 54 41 42 44 45 47 46 44 44 42 42 43 43 43 43 44 47 52 55 59 63 69 78 77 69 65 55 42 42 40 31 29 31 34 44 65 83 85 86 94 96 95 96 95 91 88 88 76 47 25 18 13 8 6 6 6 6 7 8 9 11 12 12 12
21 23 23 24 31 40 44 45 50 55 56 51 38 29 24 20 35 61 72 74 69 54 45 46 47 48 51 51 50 48 47 48 48 48 48 48 49 50 51 55 59 63 71 80 77 72 68 52 41 40 34 28 31 34 40 60 83 89 84 89 96 91 88 90 86 82 83 77 53 29 22 18 10 7 6 5 7 7 7 9 10 11 12 12 12
23 22 20 23 32 40 42 41 45 52 55 48 35 29 23 19 41 69 76 73 67 56 51 51 50 52 54 53 53 52 51 51 51 53 55 55 55 57 59 62 66 71 76 79 79 78 69 50 39 37 31 30 34 38 46 58 74 84 85 86 83 78 82 86 82 81 76 59 36 23 20 13 7 7 5 6 8 7 8 10 10 12 12 12 12
23 24 22 28 38 42 41 39 43 50 54 46 33 28 22 18 40 70 80 76 73 67 61 57 54 55 54 53 53 54 54 55 57 60 62 64 67 68 71 74 78 81 80 79 82 80 64 46 38 34 31 33 37 43 48 54 73 89 86 76 74 79 85 83 80 78 64 44 30 22 15 9 7 6 5 7 8 7 9 10 10 12 11 11 12
21 24 26 35 44 44 39 40 46 53 53 44 32 27 22 16 29 54 71 77 77 74 68 62 57 53 50 48 48 49 54 60 66 71 74 77 78 77 82 89 88 82 79 78 79 70 53 40 35 31 31 36 42 47 51 62 82 87 76 70 75 80 81 79 79 71 51 35 26 17 11 8 6 6 7 8 8 9 10 9 10 12 11 11 11
18 21 27 38 44 42 40 44 52 57 52 41 33 28 22 17 19 29 40 49 54 54 53 50 44 37 36 37 39 46 58 67 77 86 88 83 80 80 82 82 72 61 60 62 59 50 39 33 31 32 35 42 48 52 58 72 83 79 71 72 77 77 77 79 75 59 39 28 20 12 9 7 6 7 8 8 9 9 10 10 11 11 10 11 11
18 20 29 38 41 40 45 51 58 60 52 42 36 29 22 19 18 18 19 23 27 30 31 30 27 27 32 38 45 58 74 84 88 87 79 71 74 80 73 58 46 41 41 42 39 34 32 31 33 37 43 50 54 57 65 76 78 74 73 75 76 76 77 76 67 48 31 22 15 10 8 7 7 8 8 8 9 9 10 10 10 10 10 10 10
19 22 32 40 40 43 53 60 62 61 54 46 39 31 24 21 21 21 20 21 23 24 25 27 29 36 41 47 58 74 86 89 80 65 57 59 68 68 55 41 37 37 36 34 32 31 32 35 39 45 51 56 58 61 70 76 75 74 76 76 75 76 76 73 61 43 27 17 12 9 8 7 9 8 8 9 9 9 10 10 10 10 10 8 9
24 28 37 42 43 50 59 62 62 61 55 48 40 34 28 24 23 25 26 28 30 31 35 39 42 46 46 50 68 83 84 72 53 36 35 43 47 44 38 37 38 36 34 34 33 35 37 41 47 52 57 59 60 65 72 74 75 77 78 78 78 76 75 70 56 39 24 14 10 9 8 8 9 8 8 9 9 10 10 10 10 10 9 8 7
33 36 41 46 49 54 58 57 56 54 50 45 43 38 31 27 27 29 31 35 36 38 41 43 45 47 44 49 67 76 63 44 31 26 28 32 35 35 38 41 40 37 37 38 39 41 45 50 54 57 58 60 63 68 71 74 76 79 81 81 80 78 75 66 49 31 18 11 10 9 7 8 8 8 9 8 8 10 9 10 11 9 9 9 6
41 42 46 53 55 54 51 48 47 45 41 41 43 39 34 32 32 34 36 37 38 39 39 38 40 43 42 45 55 54 41 30 28 31 33 33 36 41 46 46 43 41 42 43 45 48 52 56 58 58 60 62 65 69 71 74 75 78 82 83 81 80 73 58 38 22 14 11 10 8 8 8 8 8 8 8 8 9 10 10 10 10 10 9 7
35 36 40 50 55 53 47 43 42 41 39 40 42 40 38 37 37 37 39 40 41 40 37 33 33 35 35 36 39 38 33 33 36 37 37 38 45 52 54 49 45 46 48 50 51 54 57 59 59 59 62 64 68 71 73 74 74 78 83 84 83 81 68 47 28 17 13 11 8 8 9 8 8 8 8 9 9 9 10 10 10 10 9 8 8
22 21 22 30 40 46 46 43 41 41 42 43 43 41 40 40 41 42 41 40 39 36 34 35 35 35 35 36 38 39 38 39 39 38 39 45 53 55 51 47 50 54 55 55 56 58 60 61 61 62 65 68 72 75 75 74 73 75 80 82 84 80 63 41 25 16 13 10 7 8 9 8 9 9 9 10 10 10 11 10 10 9 8 8 9
21 20 18 20 25 33 41 43 41 41 44 44 41 39 41 44 45 44 40 37 35 33 35 38 38 36 33 34 38 40 39 39 39 41 46 53 57 53 48 51 58 62 59 58 60 61 62 64 65 67 70 75 79 80 78 76 73 73 78 83 84 75 55 36 24 17 12 10 8 8 9 9 9 9 9 10 10 10 11 10 9 8 8 10 10
24 22 20 20 22 27 35 39 39 39 40 39 39 43 47 48 44 39 36 36 36 35 34 34 34 32 30 32 35 36 39 45 49 51 53 55 54 51 52 59 66 65 62 61 63 65 66 67 67 66 71 80 86 87 83 78 74 76 82 86 82 67 45 29 21 15 11 9 9 9 9 9 9 9 10 10 9 10 10 9 8 8 9 12 11
26 23 21 21 24 25 28 31 33 34 36 40 44 47 47 44 39 36 36 36 35 32 30 29 29 28 28 28 29 38 53 62 65 63 57 53 57 61 66 73 74 69 64 64 67 70 70 69 66 65 72 83 90 91 86 78 76 82 89 88 76 57 37 24 16 12 10 9 9 9 9 9 10 9 9 9 9 10 10 8 8 9 11 13 13
26 24 22 22 24 23 25 31 36 39 42 45 45 42 40 38 36 34 32 30 28 27 27 26 26 26 26 25 34 57 76 77 74 67 54 54 69 81 86 87 79 68 65 67 71 74 73 71 67 65 73 87 95 93 85 78 82 91 94 86 69 49 33 21 13 10 11 11 9 9 9 9 9 9 9 9 9 10 10 10 9 9 12 13 14
26 24 23 24 27 29 33 40 43 43 44 42 40 38 37 35 33 31 29 28 28 28 26 25 24 23 23 27 44 69 81 78 73 60 48 60 87 100 100 91 76 67 68 71 73 76 75 71 66 61 68 85 96 92 84 83 90 96 94 82 62 43 29 18 12 11 11 10 9 9 9 9 9 9 8 9 9 9 11 11 10 10 12 14 15
27 28 30 32 36 39 41 43 42 41 40 38 37 36 35 34 33 33 34 35 34 32 29 28 25 22 27 39 58 77 84 78 66 50 47 70 93 96 89 78 68 67 72 74 75 76 74 70 62 57 66 82 89 88 87 90 93 94 92 78 58 39 24 15 12 12 11 10 9 9 9 9 9 9 8 9 9 9 11 11 10 11 12 14 16
34 37 40 42 43 43 43 42 41 41 40 39 39 39 38 38 38 38 39 39 37 34 31 26 21 25 38 54 70 85 88 74 56 46 48 60 68 68 68 67 67 71 75 76 76 73 70 64 56 57 72 83 87 89 92 92 92 92 89 75 54 36 22 13 12 12 11 10 9 9 9 9 9 9 8 8 8 9 11 11 11 12 12 15 17
44 47 48 48 49 48 48 47 46 46 44 43 42 40 38 37 37 36 36 34 32 30 26 24 31 47 63 70 75 80 73 56 47 49 50 52 57 62 66 68 71 75 76 75 71 65 62 58 53 61 76 83 87 94 95 91 91 93 87 72 52 34 19 13 13 12 11 10 9 9 9 9 9 9 8 8 8 8 10 11 11 13 13 15 17
48 49 49 49 48 47 46 44 42 41 39 37 35 33 31 30 30 29 28 27 27 27 26 32 47 62 69 67 65 62 54 45 47 51 53 58 66 69 70 74 77 77 74 68 61 55 55 53 53 64 77 83 91 100 97 91 91 91 84 70 50 31 18 13 13 12 10 10 8 9 9 8 9 9 8 8 8 8 10 11 12 14 14 15 18
46 48 48 48 47 46 45 43 40 38 36 34 33 31 30 30 29 28 28 27 27 29 31 39 47 49 48 49 49 48 46 46 51 54 58 66 72 72 76 81 80 74 67 59 53 51 51 51 51 60 75 86 96 102 98 91 90 90 83 68 47 28 17 13 12 11 10 9 8 8 9 8 8 9 8 8 8 8 9 11 12 13 14 16 18
49 51 53 53 53 52 50 47 44 42 40 37 35 34 32 31 31 31 30 31 33 35 38 44 49 48 47 49 49 48 50 52 55 60 65 71 74 78 82 83 78 71 62 56 53 50 50 52 52 58 72 88 99 102 96 91 91 91 83 66 45 28 18 13 13 12 10 9 8 8 8 8 8 8 8 7 8 8 9 10 11 11 13 15 18
59 60 59 57 57 54 50 46 44 41 40 38 37 36 33 33 35 35 35 39 44 46 47 50 52 52 52 52 51 52 56 59 62 67 70 74 79 84 86 82 76 68 60 56 55 52 51 53 54 59 76 93 102 99 92 90 94 94 83 65 45 29 18 14 13 12 10 9 8 7 8 8 8 8 8 7 7 7 8 10 11 11 12 14 18
68 68 66 64 61 54 47 44 41 40 39 37 36 35 34 36 39 41 45 52 56 55 54 53 52 53 56 57 58 60 63 66 70 72 73 77 85 89 87 80 71 62 57 57 58 56 54 53 53 62 81 96 99 93 87 89 98 99 87 69 47 29 19 15 13 12 10 8 8 8 8 8 8 8 8 7 7 7 8 9 10 10 12 13 16
66 67 67 64 59 52 46 43 41 40 38 37 41 48 50 49 50 54 64 76 80 72 62 56 55 59 63 63 64 67 70 75 78 75 73 80 88 88 83 74 64 58 56 57 58 58 56 54 55 66 82 91 91 87 84 89 99 102 93 75 51 30 20 15 13 12 10 8 8 8 8 8 8 8 8 7 7 7 7 9 11 10 11 12 15
62 64 64 60 55 51 47 43 41 41 43 46 55 67 72 70 72 76 82 90 92 84 73 66 66 70 72 71 72 74 75 79 80 76 74 81 85 81 73 64 58 57 57 56 57 57 56 55 58 68 79 86 87 85 83 89 99 102 95 80 54 32 21 16 13 12 11 9 8 8 7 8 8 8 8 7 7 7 7 8 10 11 10 11 14
60 61 60 57 53 50 47 44 43 48 53 55 58 63 66 68 73 78 81 85 87 84 80 78 79 80 78 74 75 77 77 79 83 81 75 76 78 74 66 58 55 56 57 56 56 57 56 56 61 69 79 87 89 86 86 93 100 101 96 83 58 35 23 18 14 13 12 9 9 8 8 8 8 7 8 7 6 7 7 7 9 11 11 11 12
63 61 58 55 53 49 45 45 51 58 61 60 59 60 62 64 66 69 75 80 82 82 84 86 87 82 74 69 74 81 79 79 86 84 70 64 69 69 61 54 54 57 59 58 59 60 61 63 68 74 83 90 91 89 91 98 101 100 97 84 60 38 27 21 17 15 13 10 10 9 8 8 9 8 8 7 7 7 7 7 9 11 11 11 12
61 57 56 54 51 47 47 54 62 66 63 60 60 63 65 64 63 63 65 68 71 74 79 82 78 70 61 60 69 79 78 77 84 80 61 52 58 62 59 56 57 60 63 63 63 65 68 72 77 83 90 95 95 94 97 100 101 100 98 86 63 41 30 24 20 17 15 12 10 10 8 8 9 8 8 8 7 7 7 7 8 10 12 12 11
54 51 51 50 48 48 54 64 69 67 63 61 62 64 63 61 58 57 57 59 62 63 66 67 64 58 53 54 65 76 78 76 78 71 55 48 53 57 58 60 63 68 71 70 69 70 73 78 83 89 96 100 100 99 101 101 101 101 99 87 66 45 33 28 24 20 18 14 12 10 9 9 9 8 8 8 7 6 7 8 8 9 12 13 11
45 45 45 45 49 55 64 72 73 67 63 61 61 62 61 58 56 55 55 55 56 55 56 57 56 53 50 53 62 72 74 69 64 60 55 52 55 57 60 65 71 75 76 75 75 75 77 80 86 91 97 100 101 100 101 101 102 102 100 89 70 49 36 31 28 25 22 18 14 11 10 9 9 10 9 8 7 7 8 8 8 9 11 12 12
46 47 45 48 60 69 71 71 71 68 63 62 62 60 58 56 56 57 56 54 53 52 52 53 51 49 51 53 55 57 57 54 52 53 55 57 59 61 64 69 74 78 79 79 80 79 79 82 87 92 97 100 100 100 100 101 102 102 101 92 74 52 39 35 32 29 26 21 16 13 11 10 10 10 9 8 7 7 9 9 9 9 11 12 13
51 53 52 58 73 82 76 70 70 69 65 62 60 57 55 56 56 56 54 52 50 49 49 51 52 52 52 50 45 43 45 48 49 52 56 60 64 67 69 71 76 80 80 80 78 76 78 83 88 93 99 101 100 100 100 101 101 102 101 94 76 55 43 39 36 33 31 25 18 15 12 11 11 10 9 8 7 8 11 12 9 9 11 12 14
56 61 60 59 68 83 86 80 77 73 66 60 57 55 54 55 54 53 51 49 47 46 46 48 53 55 52 48 45 43 45 49 53 57 60 63 69 72 73 76 81 84 84 83 81 77 80 86 90 95 99 100 99 100 100 100 100 101 102 95 77 57 46 42 39 37 34 28 21 17 13 11 11 10 8 9 9 9 12 13 10 9 10 12 14
72 83 83 72 72 89 98 89 76 68 62 57 54 53 54 53 52 50 47 44 43 44 41 41 48 54 52 49 48 49 51 53 56 61 64 66 71 74 74 77 84 90 93 91 82 72 74 86 95 99 100 100 100 101 101 100 100 100 101 96 80 60 49 45 42 40 36 29 23 19 15 12 12 11 9 9 10 11 13 14 12 10 10 11 13
73 87 94 87 80 85 88 80 69 63 58 54 54 55 55 53 49 46 45 46 49 50 47 45 46 50 53 57 59 57 54 54 58 63 66 67 68 71 73 76 82 84 80 70 56 52 67 89 101 101 99 100 101 100 100 101 100 100 102 98 82 62 51 48 45 41 36 31 25 20 16 14 12 11 11 10 11 14 16 16 14 11 9 11 13
60 67 77 82 80 78 76 73 68 62 57 57 58 57 53 50 52 56 63 69 73 76 75 67 57 52 61 72 71 58 49 51 58 62 61 57 54 55 58 60 57 49 40 35 40 57 82 99 102 100 99 100 101 100 100 101 100 100 101 99 85 65 54 51 47 41 35 31 26 22 18 15 13 12 12 12 13 16 20 20 16 12 10 10 12
56 58 67 78 82 80 77 73 69 66 64 63 60 57 57 64 71 74 76 78 81 87 90 84 71 64 69 75 68 52 44 46 48 44 40 36 33 30 29 28 23 17 16 25 44 72 95 102 100 100 101 100 100 100 100 100 100 100 101 101 88 69 58 53 48 40 35 31 27 24 19 16 14 12 12 12 14 18 22 22 17 12 10 11 12
65 64 69 74 76 75 74 71 68 67 65 63 61 62 69 76 75 71 74 84 92 92 89 83 71 62 61 63 59 49 39 31 24 18 17 16 13 11 9 8 6 8 15 26 45 71 91 98 98 100 101 99 100 101 100 100 100 99 101 102 91 74 62 55 47 39 35 31 28 25 21 16 14 13 12 13 16 20 23 24 18 12 9 11 12
71 69 69 70 69 67 65 62 61 61 62 62 63 64 66 65 58 54 62 79 88 86 79 72 62 54 54 56 50 37 23 12 6 5 6 5 4 5 4 3 4 7 16 33 56 79 94 97 97 99 100 100 100 100 99 100 101 100 100 102 94 78 64 55 47 39 35 31 29 26 22 17 14 14 13 14 17 22 26 25 19 12 9 10 12
67 62 59 56 52 49 47 46 48 52 57 60 60 56 53 49 44 41 49 62 69 68 65 60 54 50 50 44 29 15 7 5 3 3 3 3 4 4 3 2 6 11 23 47 76 96 100 98 99 101 100 99 100 101 100 100 100 99 100 102 95 80 65 55 47 40 35 32 30 26 22 17 15 13 14 15 19 24 29 26 18 12 9 10 11
50 45 41 37 35 35 37 40 45 50 54 56 55 51 49 48 48 52 61 67 68 65 60 54 47 40 31 19 9 6 7 6 4 4 4 3 3 4 3 3 9 18 32 55 83 100 103 101 100 99 97 96 97 99 99 100 99 99 102 103 95 80 65 54 47 41 37 34 31 27 22 18 16 14 14 17 21 27 31 27 17 10 10 10 11
51 43 37 35 37 40 41 41 42 44 45 46 45 43 47 55 61 64 65 64 61 58 52 42 29 16 7 5 10 15 13 7 3 4 4 3 3 5 4 3 9 20 33 49 69 87 92 88 82 82 88 95 97 95 96 98 99 99 103 103 94 79 64 54 47 41 37 34 31 26 21 18 16 15 15 19 24 30 32 26 15 9 9 10 11
60 56 51 50 54 57 55 50 46 45 46 47 48 48 51 58 60 56 53 54 54 48 35 21 10 3 3 8 14 15 10 5 3 3 4 4 5 6 6 7 12 21 32 43 54 63 65 60 55 57 69 85 96 98 96 97 97 99 103 102 92 76 63 54 47 43 40 37 32 27 22 18 17 16 17 21 28 33 31 23 13 9 8 10 12
57 65 72 73 70 63 56 52 51 52 52 51 50 48 47 47 47 44 41 40 36 25 12 5 4 5 5 5 6 6 4 4 4 3 4 6 7 8 10 13 16 22 30 37 40 42 42 42 45 51 60 74 88 95 97 97 98 100 101 99 89 75 64 57 51 48 44 39 34 28 23 20 18 18 21 26 32 35 30 18 10 8 9 10 13
45 56 63 64 59 52 48 48 49 53 58 59 54 47 44 43 39 33 26 19 12 7 4 4 5 5 4 3 4 4 4 5 6 5 5 8 12 15 18 22 26 31 35 37 40 42 43 46 53 62 68 71 75 82 89 94 98 99 101 100 91 78 67 61 56 51 46 41 35 29 24 22 22 22 26 33 37 35 26 15 8 8 10 11 14
33 36 38 40 41 41 40 37 32 34 45 54 55 55 60 60 46 26 13 7 4 3 3 4 4 4 4 4 4 3 4 6 8 8 8 10 16 22 28 33 38 44 47 49 49 49 48 51 57 60 57 55 61 73 85 93 98 100 103 102 92 79 69 64 60 54 47 41 36 31 27 26 27 30 34 40 39 30 18 11 8 8 11 14 16
Wind_Speed
18 17 18 19 19 20 21 23 24 25 25 25 24 23 23 22 22 21 20 20 20 19 18 18 18 18 19 21 22 23 24 25 26 26 26 27 28 29 29 30 31 31 32 34 35 35 37 38 38 38 38 39 41 41 42 42 43 43 45 46 46 46 46 46 47 50 51 52 51 48 45 44 44 44 44 44 43 41 39 37 37 38 39 41 43
18 18 19 19 20 20 21 23 25 25 26 26 25 23 23 22 21 20 20 21 20 19 19 18 19 19 20 22 23 24 25 26 27 27 28 29 30 31 31 32 33 33 34 35 36 37 38 38 38 38 39 40 41 42 42 43 43 44 45 47 48 47 46 46 47 49 50 51 48 44 42 43 43 43 44 43 42 40 37 37 37 38 40 42 44
19 19 20 20 21 21 22 23 25 26 26 26 25 23 23 22 21 20 20 20 20 19 20 20 20 21 22 23 25 25 26 28 28 29 30 31 31 32 33 34 35 35 36 37 37 38 39 39 39 39 40 41 41 42 42 43 44 45 46 48 48 47 44 44 46 47 48 47 43 41 41 42 43 44 44 43 41 39 37 37 38 39 41 43 46
18 20 21 21 22 22 23 24 25 26 26 26 25 23 23 22 21 20 20 20 19 20 21 21 22 22 24 25 26 27 28 29 30 31 32 33 34 35 36 37 37 37 38 38 38 39 39 39 39 39 41 41 41 41 42 43 44 45 46 46 44 42 41 42 44 45 44 41 39 39 41 43 44 44 43 41 39 37 37 37 38 40 42 45 47
18 20 21 21 22 23 24 25 25 26 26 26 24 23 22 21 20 20 20 19 20 21 22 23 23 24 26 27 28 29 30 31 32 33 34 35 36 37 38 39 38 38 38 39 39 40 39 39 39 40 41 41 41 41 42 43 44 44 42 41 40 40 41 42 43 42 40 38 38 40 41 43 43 43 41 38 36 36 37 38 39 41 43 45 47
20 21 21 22 23 24 25 25 25 25 26 25 23 23 22 20 20 20 20 20 21 22 23 24 25 27 28 30 30 31 32 33 34 35 36 37 38 39 41 40 39 38 38 39 39 39 39 39 39 40 40 40 41 41 42 43 43 42 41 41 41 41 41 42 42 41 39 38 39 40 41 42 43 41 39 36 35 36 36 37 40 42 44 46 48
23 22 22 23 24 25 26 26 26 26 26 24 23 22 21 19 20 21 21 22 23 24 24 25 27 29 30 31 32 32 33 34 35 37 37 37 37 38 39 37 34 34 35 36 37 38 38 39 39 39 39 40 40 41 42 43 42 40 41 41 41 42 42 43 42 39 38 38 39 40 40 41 41 39 36 35 36 37 37 37 39 42 45 47 48
25 24 23 24 25 26 26 26 26 26 25 24 23 21 20 18 19 21 22 23 24 25 24 26 28 29 30 32 33 33 34 36 36 36 35 34 34 34 33 30 28 29 30 32 34 36 37 38 38 39 39 39 40 41 42 42 40 40 41 41 41 42 43 42 40 38 37 38 39 39 39 39 39 37 35 35 35 36 38 39 40 42 45 48 50
27 25 23 24 26 26 27 27 26 26 25 24 23 21 19 18 19 21 22 23 23 24 24 26 28 28 29 32 33 34 34 34 34 33 32 33 33 32 30 29 29 29 29 31 33 34 36 37 37 38 38 38 39 41 41 40 39 40 41 41 41 42 42 40 38 36 37 37 38 38 38 38 37 35 34 34 35 36 38 39 41 44 46 49 51
28 25 24 25 26 26 27 27 26 25 25 24 23 20 19 19 20 21 22 22 23 24 25 27 28 28 30 32 34 33 33 33 34 34 34 33 32 32 32 31 31 30 31 32 32 33 35 36 37 37 37 38 39 40 39 39 39 40 40 41 42 42 41 38 36 35 36 37 37 38 37 36 35 34 34 34 36 37 38 40 42 45 47 49 50
28 26 25 26 26 26 26 27 26 25 25 24 22 21 20 21 21 22 22 23 24 25 26 27 28 29 30 32 33 33 33 34 35 35 35 34 34 33 33 32 32 32 32 32 32 33 34 35 35 36 36 38 39 39 38 38 38 39 40 41 41 41 39 37 35 35 36 36 36 37 36 34 34 33 34 34 36 37 39 41 43 46 49 50 51
27 27 26 25 25 26 26 26 26 25 24 23 22 22 23 23 23 24 24 25 25 26 27 28 29 30 30 31 32 32 33 34 35 35 35 35 35 34 33 33 33 33 32 32 32 32 33 34 34 35 36 37 38 37 36 37 38 39 39 40 41 40 38 36 34 34 35 35 36 36 35 33 33 34 34 35 36 38 40 43 46 49 51 52 52
27 26 25 24 24 25 26 25 25 24 23 22 23 24 24 24 25 26 27 27 27 27 28 28 29 30 30 30 30 31 32 33 33 34 34 34 34 33 33 33 33 33 32 31 31 32 33 34 34 35 36 37 36 35 35 36 38 38 39 40 41 39 36 34 33 33 35 35 35 35 34 34 34 34 35 36 38 40 43 45 48 50 51 52 52
25 24 23 23 24 25 25 24 23 23 22 22 24 25 25 26 27 27 28 28 28 28 28 27 27 28 29 30 30 30 32 32 32 33 33 33 33 33 33 33 33 32 31 31 32 32 33 34 35 35 35 35 35 34 35 36 37 38 39 40 40 37 33 32 32 33 34 34 35 35 35 35 35 35 38 41 42 44 45 47 49 50 50 51 51
24 23 22 23 24 25 25 24 23 23 23 24 26 26 27 28 28 28 28 29 28 28 27 27 27 28 29 29 30 30 32 32 31 32 32 33 33 33 33 34 33 32 31 31 32 33 34 34 34 34 35 34 34 34 35 36 37 38 38 40 39 35 32 31 32 33 34 36 37 36 36 36 37 40 42 44 44 45 46 47 49 49 49 50 51
23 22 22 24 25 26 26 25 25 25 26 28 28 28 28 28 28 28 28 28 27 27 28 27 28 28 29 29 30 30 32 32 31 31 32 32 33 34 34 33 32 31 31 32 33 33 34 34 34 34 34 33 33 34 35 36 37 38 38 39 38 34 30 31 32 34 36 37 37 36 36 38 39 41 43 43 44 45 46 47 48 48 49 50 50
24 23 24 25 26 26 27 27 28 28 29 30 29 28 28 28 27 27 27 27 27 27 27 27 28 29 29 30 30 31 32 31 31 31 32 32 33 34 34 32 31 30 32 33 33 33 33 33 33 34 34 33 33 34 35 36 37 38 38 38 35 31 29 30 32 34 36 36 36 35 36 37 39 40 42 43 44 44 45 47 48 49 49 50 49
26 25 25 25 26 27 28 29 30 29 29 29 28 27 27 27 26 26 26 27 27 27 27 28 29 29 30 32 33 33 32 31 31 32 33 33 33 34 33 31 30 31 32 32 32 32 33 33 34 35 33 32 32 33 35 36 37 38 38 36 32 29 29 30 32 33 35 35 34 34 35 36 38 39 42 43 44 45 46 48 49 49 49 49 49
27 26 26 26 27 28 28 28 28 28 27 27 27 26 25 25 26 25 25 27 27 27 28 29 29 31 33 35 34 33 32 31 31 32 34 34 34 34 32 30 30 32 32 32 32 32 33 34 35 35 33 31 32 33 34 36 37 38 37 33 29 28 28 29 30 32 33 33 33 33 35 36 37 39 42 43 44 46 47 49 49 49 48 48 50
28 28 27 26 26 26 26 26 27 26 26 26 26 25 24 25 25 25 25 26 27 28 29 30 31 33 36 37 35 34 32 31 32 33 34 34 33 31 30 30 32 33 32 32 32 32 33 34 36 35 33 31 31 33 34 36 37 37 34 30 27 27 27 28 30 31 32 32 32 33 34 35 37 39 41 42 43 45 46 47 48 48 48 48 50
29 28 26 25 25 25 25 25 25 25 26 26 25 25 25 26 27 27 28 29 30 30 31 33 34 35 36 36 35 33 31 31 32 33 32 31 31 32 32 34 34 34 33 33 33 33 34 35 36 36 33 31 31 32 34 35 36 35 31 28 26 26 26 27 29 30 31 32 32 33 34 35 36 38 40 41 43 44 45 47 48 48 48 49 49
27 25 24 23 22 22 22 23 24 25 26 26 27 28 29 29 30 31 32 33 33 33 35 36 37 37 35 33 31 31 32 33 33 33 31 30 32 35 36 35 34 33 33 33 33 33 34 35 35 34 32 29 30 31 33 34 34 32 29 27 25 24 25 26 28 30 30 31 31 32 33 34 36 37 39 41 42 43 45 46 47 48 49 49 50
24 23 22 21 21 21 22 24 25 26 27 28 29 30 31 32 33 34 35 35 36 37 37 37 37 36 34 32 31 34 36 36 35 34 32 31 32 33 34 34 33 33 33 33 33 33 34 34 34 32 30 28 29 31 32 33 32 30 28 25 24 24 24 26 27 29 30 30 31 32 33 34 35 37 38 40 42 43 44 46 47 48 48 48 49
22 21 21 21 21 22 23 24 26 27 28 29 30 31 32 33 34 35 36 37 37 37 36 35 35 35 35 35 36 37 37 36 35 34 32 31 31 32 32 32 32 33 33 33 33 32 32 32 32 31 29 28 29 30 31 32 31 29 27 25 24 23 24 25 27 28 29 30 31 32 33 34 35 36 38 40 41 42 43 44 45 46 46 47 47
21 21 21 22 23 24 24 26 27 28 29 31 32 33 34 34 35 36 37 37 37 36 35 35 36 36 37 37 37 37 36 36 34 32 31 30 31 31 31 32 32 33 33 33 32 32 32 32 32 31 30 29 30 31 31 31 30 28 26 25 23 22 23 25 26 27 28 30 31 32 33 34 35 36 38 39 41 42 42 43 43 44 44 45 46
21 21 23 24 25 26 27 28 30 31 32 34 35 35 35 35 36 37 37 36 36 36 35 36 36 35 35 36 35 35 35 34 32 31 31 31 31 31 31 32 33 33 33 33 32 32 32 32 32 31 30 30 31 31 31 31 30 27 25 24 23 22 23 24 26 27 28 30 31 32 32 33 34 36 37 39 40 41 42 42 43 43 43 44 44
21 22 24 25 27 28 29 30 31 33 34 35 35 36 36 36 36 36 36 34 34 35 35 36 35 34 34 34 34 33 32 32 31 31 31 31 31 31 32 32 33 33 33 33 33 32 32 32 31 30 29 29 30 31 30 29 29 27 25 24 23 22 23 24 26 27 28 29 30 31 32 33 34 35 37 38 39 40 41 42 42 43 43 43 42
23 24 26 27 29 30 31 31 32 33 34 35 35 36 36 36 36 35 34 34 34 34 35 35 35 34 34 33 32 30 30 30 31 31 31 32 31 31 32 33 34 34 34 33 33 33 32 32 31 30 29 28 29 30 29 28 28 28 26 24 23 22 22 24 26 27 27 29 30 31 32 33 34 35 36 37 38 39 40 41 42 42 42 42 42
26 27 28 29 30 31 32 33 33 34 34 34 34 34 34 35 35 35 34 34 34 34 35 35 34 33 33 32 30 29 29 30 31 32 32 32 32 32 33 34 34 34 34 34 34 33 32 31 31 30 30 30 30 29 28 28 29 29 27 25 23 22 22 24 26 27 27 29 30 31 32 33 33 34 35 36 37 38 39 40 41 42 42 41 41
29 29 30 31 31 32 34 34 34 34 33 33 32 31 31 32 34 34 34 33 33 34 34 34 33 32 31 30 29 29 30 31 32 33 33 32 32 32 34 34 34 34 34 34 33 32 32 31 31 31 31 31 31 29 28 29 31 30 27 25 23 22 22 24 25 26 27 28 29 30 31 32 33 33 34 35 36 37 39 40 41 41 41 41 41
32 31 31 32 33 34 35 35 34 33 32 31 31 31 31 32 33 33 33 32 31 32 33 32 32 31 31 30 29 29 30 31 32 33 34 33 32 33 34 35 34 34 34 34 33 32 32 32 32 32 33 33 32 30 29 31 32 30 27 25 23 22 22 23 25 26 27 28 29 30 31 31 32 33 34 34 35 37 39 39 39 40 40 40 41
32 32 32 33 34 35 35 34 33 32 32 31 32 32 32 33 32 32 32 31 31 31 31 31 31 31 31 30 29 30 31 32 33 34 34 33 33 34 35 35 34 33 33 33 33 32 32 32 33 33 33 33 32 30 31 33 32 29 26 25 24 23 23 23 24 26 27 28 28 29 30 31 31 32 33 33 35 37 38 37 38 39 39 40 40
33 33 33 34 35 36 36 34 33 32 32 32 32 32 33 33 33 32 31 31 31 31 31 30 31 31 31 31 31 31 32 33 33 34 34 33 33 34 35 35 35 34 34 34 34 34 33 33 33 34 34 33 32 31 33 33 30 27 25 25 24 23 23 23 24 25 27 28 28 29 30 30 31 32 32 33 34 35 36 36 37 38 39 39 39
35 35 35 36 37 37 35 34 33 33 33 33 32 32 33 34 33 32 31 30 30 31 30 30 31 32 32 32 32 32 32 33 34 35 34 33 33 34 35 36 36 36 35 36 35 35 35 34 34 33 33 33 32 34 34 32 29 27 26 25 24 24 23 24 25 26 27 27 28 28 29 30 30 31 32 32 33 34 35 36 37 37 38 38 38
37 37 36 37 38 37 35 34 33 34 34 34 33 33 34 34 33 32 31 30 30 30 31 31 32 32 33 33 32 32 33 34 35 35 34 34 34 35 36 37 37 37 37 37 36 36 35 35 34 33 33 33 34 37 36 32 29 27 26 25 24 24 24 24 25 26 27 28 28 28 29 29 30 30 31 32 32 33 34 35 35 36 37 37 37
37 37 37 37 38 38 37 35 35 35 35 35 34 34 34 34 33 32 31 31 31 31 31 32 32 33 33 33 33 33 33 34 34 35 34 34 35 36 37 37 38 37 36 35 35 35 35 34 34 34 33 33 35 38 37 34 30 28 27 26 25 24 24 24 25 25 27 27 28 28 28 28 29 30 30 31 31 32 33 34 34 35 35 36 37
37 37 37 37 38 39 39 38 37 37 36 35 35 34 34 33 32 32 32 32 32 32 32 33 33 33 33 34 34 34 34 34 34 34 35 35 36 37 37 37 37 35 34 33 34 35 35 35 34 33 33 34 36 38 38 35 31 29 27 26 25 25 24 25 25 26 27 28 28 28 28 28 28 29 29 30 31 32 32 33 33 33 34 35 35
39 38 38 38 38 39 40 39 37 37 36 36 34 34 34 33 32 32 32 32 32 33 33 33 33 33 34 34 34 34 33 34 34 35 35 35 36 36 37 37 36 35 35 35 35 35 35 34 33 32 32 34 36 39 39 36 33 30 28 26 25 25 24 24 25 26 27 28 28 28 28 28 28 29 29 30 31 32 32 32 32 33 33 33 34
38 37 38 38 37 36 36 35 36 36 36 35 34 33 33 32 32 32 32 32 32 33 33 33 33 34 34 34 34 34 34 34 35 35 35 35 36 36 37 38 38 38 38 38 38 38 37 35 34 35 36 37 38 39 38 36 34 32 29 27 26 25 24 25 25 26 27 28 28 27 28 28 29 29 29 30 31 32 32 32 31 31 32 32 32
39 37 36 36 37 37 37 37 36 35 35 34 33 32 32 31 31 32 32 31 32 32 33 34 34 34 34 33 33 34 35 35 35 35 36 36 37 38 39 40 41 41 42 42 41 39 37 36 36 38 39 40 39 39 38 36 34 33 30 28 27 25 25 25 25 26 27 27 27 27 27 27 28 29 29 30 31 32 32 32 31 31 31 32 32
42 40 39 38 37 37 37 35 33 33 33 32 31 31 30 30 31 31 31 32 33 33 34 34 34 34 33 33 34 35 36 36 36 37 37 38 39 39 40 42 43 44 43 42 40 37 36 36 38 40 40 39 39 38 38 37 35 33 31 29 27 26 26 25 26 26 27 27 27 27 27 27 27 28 28 29 30 30 31 32 31 31 31 32 32
41 41 40 38 36 34 33 32 32 31 31 31 31 31 30 30 30 31 32 33 33 32 31 31 32 32 33 34 36 37 38 38 38 39 39 39 39 40 41 42 42 42 41 39 37 36 35 36 37 37 37 37 36 36 36 36 35 34 32 30 28 27 26 26 26 27 28 27 27 27 27 27 28 28 28 28 29 29 30 30 30 29 29 30 31
37 38 37 36 34 33 33 32 32 31 31 31 31 31 30 30 30 31 32 31 29 28 28 30 32 34 34 35 37 39 40 40 39 38 38 38 38 39 40 40 40 40 39 38 36 35 35 35 35 34 33 33 33 34 35 36 36 35 32 30 28 27 26 26 27 28 28 27 27 27 27 28 28 28 29 29 29 30 30 31 30 29 28 29 30
35 36 35 34 33 33 33 33 33 33 32 32 32 31 31 31 32 32 32 31 30 31 32 34 35 35 35 37 39 40 40 39 38 36 36 36 36 37 38 39 39 38 36 35 34 34 33 33 33 33 32 32 32 34 35 36 36 35 32 30 29 28 27 27 27 28 28 27 26 27 28 28 28 28 29 29 30 30 31 31 30 29 29 30 30
33 34 34 34 33 33 33 34 33 33 33 32 32 32 32 33 33 34 33 33 34 34 35 35 36 36 38 39 40 39 38 36 35 35 35 35 36 37 38 37 36 34 33 33 32 31 30 29 30 31 32 33 33 33 34 35 36 34 31 30 29 28 28 28 28 28 28 27 26 26 28 29 29 29 29 29 30 31 31 31 30 29 29 30 31
32 32 32 32 31 31 32 32 32 32 32 32 32 32 33 33 34 34 34 34 35 36 36 37 38 38 39 39 38 36 35 34 34 34 35 35 35 35 35 34 32 30 31 31 31 30 29 30 30 31 32 32 33 32 32 33 33 33 31 30 29 28 28 28 28 28 28 27 26 26 28 29 29 30 30 30 30 31 31 31 30 29 29 30 30
29 31 31 31 30 30 30 30 31 31 31 31 32 32 33 33 34 34 35 36 36 37 38 38 39 39 38 36 34 33 33 33 33 33 33 33 33 32 31 30 29 28 29 30 31 31 31 31 32 32 32 32 32 32 31 31 31 31 30 29 28 28 28 28 28 29 28 27 27 27 27 28 29 30 30 31 31 32 32 31 30 29 29 30 30
29 31 31 30 30 30 30 31 31 31 31 31 32 33 33 34 35 35 36 37 37 38 38 38 37 35 33 32 31 30 31 31 31 31 30 31 30 28 28 28 27 27 27 29 30 30 31 31 31 31 32 32 32 31 30 30 30 30 29 28 28 28 28 29 30 30 29 28 27 28 28 28 28 29 30 31 32 33 32 31 30 30 30 31 31
31 31 31 30 31 31 32 32 32 31 32 33 34 35 35 36 37 38 38 38 37 36 36 34 33 32 30 30 29 28 28 29 29 29 28 28 28 27 26 25 25 26 28 29 30 31 32 32 32 32 31 31 31 31 30 30 29 28 27 28 29 29 29 30 31 30 29 29 29 29 29 29 29 29 30 31 33 33 32 31 31 31 31 31 32
33 33 33 33 33 34 34 33 33 32 33 34 35 36 36 36 36 37 37 37 35 33 31 31 31 31 30 29 28 27 26 26 28 28 27 27 26 25 24 24 24 25 26 28 29 30 31 31 31 30 30 31 31 32 31 30 29 28 29 29 29 29 30 31 32 31 30 30 30 29 29 29 29 29 30 32 33 33 32 31 31 31 32 32 32
34 35 35 35 35 36 36 36 35 35 35 35 36 36 35 34 34 33 33 32 30 30 30 30 30 30 29 28 27 27 25 25 26 26 27 26 26 25 24 24 24 25 26 27 28 30 31 31 31 31 31 32 32 32 32 32 31 30 30 29 28 29 31 32 32 31 31 31 31 31 30 30 30 30 31 33 34 33 32 31 32 32 32 32 33
Wind_Direction
264 263 264 268 273 276 276 275 273 274 275 276 278 280 282 281 275 269 266 265 266 266 267 270 273 277 280 283 284 284 284 286 287 290 291 291 290 289 290 290 291 293 296 300 302 304 306 306 305 305 305 305 304 305 306 307 308 310 310 311 311 311 312 313 313 315 318 319 319 318 317 317 319 320 321 321 321 319 318 319 320 322 322 323 324
262 262 263 267 271 273 273 274 273 274 275 277 279 281 283 283 279 273 268 265 265 266 267 270 273 277 281 284 284 285 286 287 289 290 291 291 290 290 290 291 292 294 297 300 302 304 305 305 305 305 305 304 304 305 306 307 309 310 310 311 310 310 312 312 312 315 317 318 317 316 316 318 321 322 322 322 321 319 320 321 322 323 324 325 325
263 262 263 266 269 271 272 274 274 274 275 277 280 283 285 284 281 276 269 265 264 265 266 269 273 278 282 284 285 287 288 289 289 291 291 291 291 291 291 292 293 295 298 300 301 302 304 305 304 304 304 304 305 306 307 309 310 310 311 311 311 311 313 312 313 315 316 316 315 316 318 322 323 323 323 323 321 320 322 323 324 325 326 325 326
264 263 263 264 267 270 271 273 274 274 275 277 280 284 285 284 281 276 269 265 263 264 266 270 274 279 282 285 287 287 288 289 289 290 291 291 291 291 291 292 293 295 297 299 300 301 302 304 304 304 304 305 305 307 308 309 309 310 312 313 313 314 314 313 314 316 316 315 316 318 322 325 324 324 324 323 321 322 324 325 327 327 326 326 327
265 265 264 264 266 269 270 272 273 274 275 276 279 282 283 282 279 274 270 267 266 267 268 271 275 278 282 285 286 287 287 288 289 290 290 290 290 290 290 290 292 295 297 299 299 299 301 303 303 303 304 305 306 307 308 308 309 310 312 314 315 315 316 317 318 318 318 318 319 322 325 326 325 324 324 322 322 324 326 327 328 327 327 328 327
265 266 265 265 265 267 270 272 273 273 274 275 278 280 281 280 275 273 272 271 270 271 272 275 277 278 282 284 286 287 287 288 289 288 288 288 289 291 291 291 294 296 297 297 297 299 301 302 302 302 303 304 305 306 308 308 309 310 312 314 316 318 319 321 322 321 320 320 323 325 326 326 325 325 323 323 325 326 327 328 328 328 328 328 329
264 264 264 264 264 266 269 270 271 272 273 274 276 278 280 279 273 271 272 272 272 274 276 278 278 279 282 284 286 287 287 288 288 287 288 290 294 297 296 296 298 298 296 296 297 298 300 300 301 302 303 303 305 307 308 308 309 310 313 316 318 320 322 323 323 321 321 322 325 326 326 326 326 324 324 326 328 328 328 328 329 329 329 330 331
263 261 261 261 263 265 267 268 269 270 271 271 273 276 279 277 272 270 270 270 273 276 278 278 278 280 283 285 285 286 287 289 290 290 293 296 301 305 304 303 304 302 298 296 296 297 298 299 300 302 302 304 306 307 307 307 309 311 314 317 319 321 323 323 323 321 321 323 325 327 327 327 325 325 326 328 328 328 328 329 330 331 332 333 333
261 259 258 259 261 264 265 266 268 268 268 268 270 274 275 273 269 268 268 270 273 276 278 278 280 282 284 284 285 287 290 292 294 296 299 302 304 307 309 309 307 304 301 299 298 298 299 300 301 302 303 305 306 306 307 308 310 313 315 317 320 321 323 324 323 321 321 323 326 328 328 327 326 326 328 328 329 330 330 331 332 334 335 335 335
258 255 254 256 259 261 263 264 266 266 265 266 268 270 271 268 266 266 269 272 274 276 277 279 282 283 283 284 286 290 291 293 296 299 300 303 305 307 308 308 308 306 304 302 301 300 300 301 302 303 304 305 306 307 308 309 311 314 316 319 321 322 324 324 321 319 321 323 326 328 329 328 327 327 329 330 331 332 332 332 334 336 337 337 336
255 253 251 254 257 259 260 261 262 263 263 264 266 267 267 264 265 267 270 272 274 276 278 280 282 283 284 286 288 290 290 292 297 299 299 302 304 305 307 307 307 307 305 303 303 302 301 302 303 304 305 305 306 308 309 310 313 316 318 320 321 323 324 323 320 321 323 324 327 330 330 329 328 329 331 332 333 334 334 335 337 338 338 338 338
253 252 251 254 256 257 258 259 260 261 262 263 264 264 264 264 266 268 270 272 275 277 279 280 282 284 285 286 287 288 290 293 296 298 299 301 302 305 306 307 307 306 305 304 304 303 304 304 305 306 306 306 307 308 309 311 314 317 319 321 322 324 325 323 321 321 323 325 329 330 329 329 330 332 333 334 335 337 337 338 340 340 340 339 338
251 253 253 253 254 255 257 259 260 261 261 261 261 262 263 265 267 269 271 274 276 278 280 281 282 284 285 286 287 289 291 292 294 295 297 300 302 303 305 306 306 306 305 306 307 307 307 307 307 308 307 307 308 308 309 312 315 317 319 321 323 324 323 321 320 320 323 328 329 329 330 333 334 334 335 337 340 340 340 341 341 341 340 338 338
252 253 254 254 254 255 257 259 260 260 259 258 258 259 262 265 268 271 274 277 278 279 281 281 281 283 285 286 287 288 289 290 292 294 297 300 301 303 305 307 307 307 308 309 309 309 309 309 309 308 308 308 308 308 310 314 316 317 319 321 323 323 320 318 319 321 326 329 330 331 334 335 335 338 341 343 343 342 341 341 341 340 340 339 340
253 256 258 256 254 255 257 258 258 259 258 258 257 259 263 266 269 272 275 276 278 279 280 280 281 282 284 285 286 287 288 290 292 295 299 300 301 304 306 307 307 308 310 311 310 310 310 309 309 309 308 308 308 308 311 314 316 318 319 321 323 322 319 318 320 323 327 330 332 335 336 338 341 344 344 343 341 341 340 340 340 340 341 343 344
255 259 259 256 254 254 255 255 255 255 256 258 260 262 265 267 270 272 273 275 277 279 281 281 282 283 285 287 287 287 289 291 294 297 300 300 302 304 305 305 306 308 310 310 310 310 310 310 310 309 309 308 308 309 312 315 318 319 320 321 322 320 318 319 322 326 329 332 335 337 338 342 344 343 341 340 340 340 340 340 340 342 345 346 345
259 262 260 256 254 253 252 253 253 253 255 258 261 264 266 268 269 270 273 276 277 279 282 283 284 286 289 290 289 288 288 290 294 297 299 300 301 303 304 304 305 307 309 310 310 310 310 311 310 310 309 308 308 310 312 316 318 320 321 322 321 319 318 321 325 329 331 334 336 337 340 342 341 339 339 340 340 340 340 341 343 345 347 346 345
263 264 261 258 255 255 255 255 255 257 258 260 262 263 264 266 267 269 273 277 279 281 284 286 287 290 292 292 291 288 286 289 293 297 300 301 300 301 303 302 303 307 309 310 310 310 311 311 311 310 309 309 310 311 313 317 319 321 321 321 319 317 319 322 327 329 331 333 335 337 338 339 339 340 340 340 340 341 342 343 345 346 346 346 347
266 265 263 260 259 260 259 258 258 260 260 260 260 260 262 265 268 271 275 278 282 287 289 289 290 293 294 294 292 287 284 288 294 297 300 300 299 300 301 300 303 307 309 310 311 311 311 311 311 310 309 309 310 312 315 319 320 321 321 319 317 316 319 324 327 328 329 331 333 335 336 337 339 341 341 340 341 343 343 344 344 344 345 347 348
265 265 264 263 261 260 259 257 258 258 258 258 259 261 263 267 270 274 277 281 286 290 290 291 293 295 296 294 289 282 282 289 294 296 300 301 299 299 299 300 305 308 309 311 312 312 312 310 309 309 309 308 309 312 317 320 321 321 319 316 315 315 319 324 325 326 327 329 332 334 334 337 341 341 341 342 342 343 343 343 343 344 346 348 349
264 263 262 259 256 255 255 255 256 256 257 259 260 262 265 268 271 276 280 284 288 289 289 291 295 296 294 291 284 278 281 289 293 295 298 298 296 296 298 302 306 308 309 311 312 312 311 309 309 310 310 308 309 313 318 320 320 319 317 314 313 315 318 322 323 324 325 327 331 332 334 337 341 341 341 342 342 343 344 343 344 345 347 348 349
259 257 254 251 250 251 253 254 256 258 260 262 265 267 269 271 274 278 281 284 286 287 288 292 294 293 289 283 278 280 287 292 294 294 295 292 290 292 296 300 303 305 308 311 311 311 309 308 310 311 310 308 310 315 318 319 319 318 315 312 311 314 317 319 321 321 322 326 329 331 333 338 340 341 342 343 342 343 344 344 346 347 347 348 349
251 249 246 246 247 250 252 256 259 261 264 267 269 272 274 276 278 280 281 283 284 285 288 291 291 288 282 277 277 283 289 292 293 293 294 293 292 292 295 298 302 305 308 310 310 309 308 308 310 311 308 306 310 315 316 317 318 317 313 310 310 312 315 317 318 318 320 325 328 329 333 337 339 341 343 343 343 344 345 346 347 347 348 348 349
245 245 245 246 248 251 255 258 262 265 268 271 273 276 278 279 280 281 281 282 283 285 287 287 284 281 280 280 282 285 288 289 291 292 293 293 292 293 296 299 302 305 308 308 308 308 308 308 309 310 307 305 308 312 314 316 318 316 312 308 307 309 312 314 314 316 320 323 325 328 333 336 339 341 343 343 344 344 345 346 348 348 348 348 348
245 247 249 251 253 256 260 263 266 269 271 274 276 278 280 281 281 281 282 283 284 285 285 283 282 281 282 283 284 285 286 288 290 291 292 292 293 294 298 300 303 306 307 307 308 308 307 307 308 308 306 305 306 308 311 314 316 315 310 305 304 307 310 311 313 316 319 321 323 327 331 335 338 341 342 342 343 344 345 347 347 348 349 349 349
249 252 254 257 260 263 266 268 270 272 274 275 278 279 281 283 283 283 284 285 285 285 283 282 282 283 284 284 284 285 287 289 290 291 292 292 293 296 299 302 304 306 307 307 308 307 306 306 307 306 305 305 305 305 308 312 314 313 306 301 301 305 307 309 312 314 315 318 322 326 330 334 337 339 340 342 342 343 345 346 346 348 349 350 350
255 257 260 264 267 269 272 273 274 275 277 278 280 281 283 284 283 283 285 286 285 284 283 283 283 284 284 284 285 286 287 289 290 290 291 292 294 297 300 302 304 305 306 307 306 305 304 304 304 303 303 304 304 303 306 310 313 311 304 298 298 302 304 307 309 309 312 316 320 324 329 333 336 338 339 340 341 343 345 345 346 348 349 349 350
258 262 265 269 272 274 277 277 278 279 280 281 282 283 284 283 283 283 284 285 285 284 282 282 283 284 284 285 285 286 287 287 287 289 291 292 295 298 300 302 303 304 305 305 303 302 302 302 301 300 299 300 300 301 304 308 311 310 302 295 295 298 302 303 304 305 309 314 319 324 329 332 334 336 337 339 340 343 344 345 346 348 349 349 350
263 266 269 272 275 278 280 281 282 284 284 283 284 284 283 281 281 282 283 283 282 281 281 281 283 283 283 284 285 285 285 285 286 288 290 292 295 298 299 300 302 304 304 302 301 300 300 299 298 297 295 295 296 299 302 306 308 307 300 294 293 296 299 300 301 304 309 314 319 323 326 329 331 334 335 338 340 342 344 345 346 348 348 349 350
267 270 272 274 277 279 281 283 285 285 284 283 283 284 283 281 280 280 281 281 280 279 279 281 282 283 283 284 284 284 284 284 285 287 290 293 296 298 298 300 302 302 302 301 301 300 298 297 297 295 293 293 294 296 300 303 305 304 298 291 289 291 294 297 299 303 307 312 317 320 323 326 329 332 334 337 339 342 345 345 346 346 347 349 350
270 271 272 274 277 279 281 284 284 284 283 281 280 281 281 280 279 279 280 280 279 278 279 280 282 282 283 283 283 282 283 284 285 287 291 294 296 297 297 299 300 301 301 301 301 300 298 296 295 294 293 292 292 293 297 302 304 302 295 289 286 288 292 296 298 301 305 309 313 317 320 324 327 330 332 335 340 343 344 343 343 344 347 350 350
268 269 271 275 277 278 281 282 281 280 279 279 279 279 279 278 278 278 278 278 278 279 279 280 280 280 281 282 282 281 282 284 285 287 291 294 295 296 297 298 298 299 300 300 299 299 297 296 295 294 293 291 290 291 296 301 302 298 292 287 284 286 290 293 296 298 301 305 310 314 318 321 325 327 331 336 341 342 340 340 342 344 347 350 349
266 269 272 274 276 277 278 277 276 277 277 277 278 278 278 277 277 276 276 277 278 278 279 278 278 279 281 281 281 281 282 284 285 288 291 293 294 294 295 296 297 297 297 297 296 296 296 296 295 294 292 290 288 290 295 298 298 294 289 284 280 283 287 290 293 295 297 301 306 311 316 320 323 326 330 336 339 337 336 339 342 344 347 349 348
268 270 271 272 273 274 273 272 272 274 276 276 277 277 276 277 277 278 278 277 277 277 277 277 277 278 279 280 280 282 283 285 287 288 290 291 292 293 293 295 296 296 294 293 294 294 295 295 294 293 291 288 286 288 292 294 292 290 287 281 277 280 284 287 290 293 295 299 304 309 314 318 321 325 330 334 334 335 337 340 342 343 346 347 347
269 270 270 270 270 270 268 268 270 273 275 276 276 275 275 276 278 278 278 277 276 276 276 275 275 276 278 280 281 283 284 285 286 287 289 291 292 292 293 294 294 294 293 292 293 293 294 294 293 292 291 287 284 286 289 290 289 287 283 276 273 276 280 284 288 291 294 297 301 305 310 315 319 324 328 329 331 334 338 339 341 342 343 345 347
270 269 269 269 269 269 267 267 268 271 274 276 275 274 275 276 276 277 276 275 274 274 274 274 275 276 279 281 282 283 283 284 285 287 289 290 291 291 292 293 293 293 293 294 294 294 295 294 294 293 291 287 284 285 287 287 286 284 279 273 270 273 277 281 285 289 291 294 297 302 307 313 317 321 323 325 329 334 337 338 340 340 341 344 347
265 264 264 266 267 267 267 267 268 271 273 275 274 274 274 274 273 273 273 272 272 272 273 274 275 277 279 280 281 281 282 283 284 286 288 290 290 291 292 293 293 293 293 294 295 295 295 295 294 293 290 285 283 284 286 285 283 281 275 269 266 269 274 278 283 287 290 293 296 300 304 310 314 316 319 323 328 332 336 337 337 338 340 343 345
264 262 262 263 265 264 263 266 269 271 273 274 273 273 272 272 271 271 270 270 270 271 272 273 275 276 277 278 279 280 281 283 285 287 289 290 291 292 292 292 291 291 293 294 296 296 295 294 294 294 291 287 284 284 285 284 282 278 272 265 262 266 270 274 279 284 288 291 294 297 301 306 309 313 318 323 327 330 333 335 336 337 340 341 342
264 264 263 264 263 260 261 268 272 273 272 271 271 270 270 270 270 269 268 268 269 270 271 272 273 274 276 276 278 281 283 285 287 288 288 290 291 291 291 291 290 291 293 294 295 294 294 293 294 295 293 289 285 282 282 283 282 279 272 263 260 262 267 270 274 279 283 287 291 294 298 302 307 312 317 321 324 327 331 333 335 336 337 338 340
264 265 266 266 263 261 265 272 274 271 269 268 268 268 268 268 268 268 269 269 269 270 271 271 271 273 275 277 280 282 284 286 287 288 289 290 291 291 291 291 292 292 293 294 295 295 295 294 293 292 292 290 286 282 281 282 282 279 272 262 257 259 264 268 272 276 280 285 289 292 295 300 305 310 315 319 323 326 328 331 333 333 334 336 339
266 266 268 269 267 266 268 271 271 268 267 267 267 267 267 267 267 267 268 269 270 271 270 270 271 273 276 279 282 284 285 287 287 288 289 290 291 291 292 293 293 294 295 295 296 297 296 293 288 286 287 288 288 286 283 281 281 279 271 261 255 257 261 266 270 274 278 283 287 291 294 298 302 306 311 316 319 322 325 328 330 331 332 334 336
266 266 266 268 268 266 266 268 268 267 267 267 267 267 266 266 267 268 271 273 274 273 272 272 273 277 280 282 283 284 285 286 287 288 290 291 292 292 293 293 293 294 294 294 294 295 295 293 289 287 288 289 289 287 284 281 281 279 271 259 254 256 260 264 268 273 277 282 286 289 292 295 299 303 308 312 316 319 323 325 327 329 330 331 333
264 265 265 266 266 265 266 267 267 267 267 267 267 266 265 265 267 271 273 274 273 273 274 275 277 279 282 282 282 283 285 286 288 289 290 291 292 293 293 292 292 292 292 292 291 292 292 292 292 292 294 293 290 286 283 280 280 278 270 258 253 256 260 262 266 271 275 280 285 289 291 294 297 301 306 310 314 318 321 323 324 327 328 329 330
263 264 265 266 266 266 266 267 266 266 266 266 265 265 265 266 267 270 271 270 271 273 276 277 279 281 282 282 283 284 285 287 288 289 290 291 292 292 291 291 290 290 291 291 291 291 292 293 293 293 294 293 289 285 282 279 279 277 269 257 252 256 259 261 264 269 273 278 284 288 290 292 295 299 304 309 312 315 318 321 323 325 327 328 329
263 264 265 266 266 266 266 266 266 266 265 265 266 266 267 268 269 270 270 271 272 274 276 278 279 281 281 282 283 284 285 286 288 291 293 294 293 292 291 291 291 291 291 290 290 290 292 294 294 294 293 292 289 286 283 279 277 274 266 255 251 255 259 261 264 270 274 279 283 287 289 291 294 298 302 307 310 312 316 319 321 323 325 326 327
262 263 264 264 265 265 265 266 266 265 265 266 267 268 268 269 270 270 270 271 272 273 275 277 279 279 279 280 282 283 285 287 289 291 293 294 293 292 291 292 292 290 289 288 288 289 291 293 295 295 294 293 292 289 286 282 278 272 262 252 250 254 259 262 266 270 273 277 281 284 287 290 293 297 301 304 307 310 314 317 319 321 321 321 323
261 262 264 265 266 266 266 266 266 266 267 267 268 269 269 270 270 271 272 272 273 275 277 277 278 278 278 279 279 281 284 286 287 289 291 293 294 293 293 293 292 290 287 287 288 290 292 294 296 297 297 296 295 293 289 285 279 271 260 252 252 256 260 263 267 270 273 276 280 282 284 287 291 295 299 302 305 309 313 316 317 318 318 319 320
260 262 264 265 266 267 267 267 268 268 269 270 270 270 270 270 271 272 274 275 275 276 277 277 277 277 278 279 279 281 284 286 287 290 293 295 296 295 295 295 294 291 288 287 288 289 292 294 296 298 298 298 297 294 292 288 281 270 259 253 255 259 262 265 268 271 274 277 279 281 283 286 289 293 297 300 304 308 312 314 315 315 316 316 318
261 262 263 263 264 266 267 268 269 270 271 271 271 270 271 271 272 273 274 275 276 277 277 277 278 279 280 280 281 283 287 289 290 293 295 297 296 296 296 295 294 292 290 289 289 290 291 293 295 296 296 296 296 296 294 290 282 270 258 254 256 259 263 267 271 273 276 278 280 282 284 286 289 293 297 300 303 307 310 312 312 312 313 314 316
261 261 262 263 265 267 267 267 268 269 270 271 270 271 272 273 274 274 274 275 275 275 275 276 277 279 280 281 282 285 289 291 292 293 295 296 295 294 293 293 292 292 291 291 291 292 292 293 295 295 294 295 295 294 293 291 283 268 256 253 256 261 267 271 273 275 278 280 281 283 286 288 291 295 298 300 303 306 308 309 309 310 311 312 314
263 263 264 265 266 267 268 268 268 268 267 267 269 270 272 275 277 277 275 273 271 271 271 273 275 277 280 282 284 286 289 291 292 292 293 293 292 291 291 291 291 290 290 291 292 293 294 294 293 293 294 295 295 294 293 289 279 265 255 255 260 266 270 273 275 277 279 281 283 284 286 289 292 295 298 300 302 304 306 306 306 308 309 310 312